Regional Weather Roundup
Issued by NWS

Home | Current Version | Previous Version | Graphics & Text | Print | Product List | Glossary On
Versions: 1 2 3 4 5 6 7 8 9 10 11 12 13 14 15 16 17 18 19 20 21 22 23 24 25 26 27 28 29 30 31 32 33 34 35 36 37 38 39 40 41 42 43 44 45 46 47 48 49 50
000
ASUS43 KOAX 311910
RWRNE

WEATHER ROUNDUP FOR NEBRASKA
NATIONAL WEATHER SERVICE OMAHA NE
200 PM CDT MON AUG 31 2015

NOTES: SATELLITE DATA IS BEING USED TO AUGMENT CLOUD COVER ABOVE
       12000 FEET.
       "FAIR" INDICATES FEW OR NO CLOUDS BELOW 12,000 FEET WITH NO
       SIGNIFICANT WEATHER AND/OR OBSTRUCTIONS TO VISIBILITY.

  * THESE STATIONS DO NOT REPORT WEATHER SUCH AS RAIN...SNOW OR FOG.

NEZ001>004-019>022-054>056-312000-
NEBRASKA PANHANDLE

CITY           SKY/WX    TMP DP  RH WIND       PRES   REMARKS
SCOTTSBLUFF    PTSUNNY   87  49  26 CALM      30.02S
ALLIANCE       CLOUDY    79  53  40 NE12      30.02S
CHADRON        PTSUNNY   77  55  46 E10       30.01F HAZE
KIMBALL        PTSUNNY   78  50  37 SE5       30.08S
SIDNEY         CLOUDY    86  51  29 N13       30.06S
$$

NEZ057>060-069>072-079>082-312000-
SOUTHWEST NEBRASKA

CITY           SKY/WX    TMP DP  RH WIND       PRES   REMARKS
NORTH PLATTE   SUNNY     88  57  34 NE6       29.93F
IMPERIAL       MOSUNNY   92  51  24 NE13      29.96S
LEXINGTON      SUNNY     87  63  44 S3        29.93S
MCCOOK         SUNNY     90  58  33 VRB5      29.91F
OGALLALA       PTSUNNY   90  54  29 NW16      29.96S
$$

NEZ005>010-023>029-035>040-094-312000-
NORTH CENTRAL NEBRASKA

CITY           SKY/WX    TMP DP  RH WIND       PRES   REMARKS
VALENTINE      MOSUNNY   83  59  44 NW18      29.96R
AINSWORTH      SUNNY     90  57  32 N10       29.92S
BROKEN BOW     SUNNY     88  61  40 S13       29.92F
O`NEILL        MOSUNNY   87  64  46 S15G21    29.89S
ORD            SUNNY     89  62  40 S8        29.90F
THEDFORD       SUNNY     90  55  30 N3        29.95S
$$

NEZ041-046>049-061>064-073>077-083>087-312000-
SOUTH CENTRAL NEBRASKA

CITY           SKY/WX    TMP DP  RH WIND       PRES   REMARKS
GRAND ISLAND   SUNNY     86  66  51 S14       29.93F
AURORA         SUNNY     84  67  58 S17       29.93S
HASTINGS       SUNNY     86  65  49 S10G18    29.93F
HEBRON         SUNNY     86  66  50 S9G18     29.93F
HOLDREGE       SUNNY     85  62  44 S10       29.93S
KEARNEY *      SUNNY     86  64  48 S13       29.92F
YORK           SUNNY     84  70  61 S13       29.94F
$$

NEZ011>018-030>034-042>045-312000-
NORTHEAST NEBRASKA

CITY           SKY/WX    TMP DP  RH WIND       PRES   REMARKS
NORFOLK        SUNNY     83  68  60 S13       29.92S
ALBION         SUNNY     81  66  60 S12       29.93F
BLAIR          PTSUNNY   81  67  61 S13       29.95F
COLUMBUS *     SUNNY     82  66  57 S13       29.92F
FREMONT        MOSUNNY   83  67  58 S13       29.94F
TEKAMAH        MOSUNNY   84  70  62 S13G18    29.93F
WAYNE          MOSUNNY   82  69  64 S12       29.92F
$$

NEZ050>053-065>068-078-088>093-312000-
SOUTHEAST NEBRASKA

CITY           SKY/WX    TMP DP  RH WIND       PRES   REMARKS
LINCOLN        SUNNY     86  66  51 S13G20    29.94F
OMAHA EPPLEY   MOSUNNY   85  67  54 S14       29.94F
BEATRICE       MOSUNNY   84  69  59 S12       29.95S
FALLS CITY     MOSUNNY   88  68  51 S12G17    29.95F HX  91
NEBRASKA CITY  MOSUNNY   83  61  46 S9        29.96S
PLATTSMOUTH    MOSUNNY   82  66  58 S10G16    29.96S
$$

NEZ044-045-051>053-067-312000-
OMAHA AREA

CITY           SKY/WX    TMP DP  RH WIND       PRES   REMARKS
OMAHA EPPLEY   MOSUNNY   85  67  54 S14       29.94F
BLAIR          PTSUNNY   81  67  61 S13       29.95F
FREMONT        MOSUNNY   83  67  58 S13       29.94F
MILLARD        PTSUNNY   83  69  62 S12       29.94F
OFFUTT AFB     FAIR      83  68  59 S10       29.94F
PLATTSMOUTH    MOSUNNY   82  66  58 S10G16    29.96S
WAHOO          FAIR      84  67  57 S9        29.94F
$$



USA.gov is the U.S. government's official web portal to all federal, state and local government web resources and services.